Location: Unspecified
(0.0000°N, 0.0000°E)
Time: 21:34:28
(UTC+00:00)

SR - Visible Passes

Search period start: 01 October 2022 00:00
Search period end: 11 October 2022 00:00
Orbit: 573 x 879 km, 66.7° (Epoch: 01 October)

Date Brightness Start Highest point End Pass type
(mag) Time Alt. Az. Time Alt. Az. Time Alt. Az.
01 Oct ? 19:35:37 10° SSW 19:40:51 84° S 19:40:51 84° S visible
02 Oct ? 18:46:02 10° S 18:50:56 35° ESE 18:54:01 21° ENE visible
02 Oct ? 20:29:16 10° WSW 20:32:49 17° WNW 20:33:32 17° WNW visible
03 Oct ? 19:37:26 10° SW 19:42:34 42° WNW 19:46:58 15° N visible
04 Oct ? 18:46:59 10° SSW 18:52:25 79° ESE 18:58:13 10° NNE visible
05 Oct ? 19:40:15 10° WSW 19:44:10 20° WNW 19:48:15 10° NNW visible
06 Oct ? 18:48:41 10° SW 18:53:57 48° WNW 18:59:30 10° N visible
08 Oct ? 18:51:17 10° WSW 18:55:32 22° WNW 18:59:56 10° NNW visible
10 Oct ? 04:46:48 10° NNE 04:50:10 20° ENE 04:53:23 10° ESE visible
